Nur fliegen ist schöner ....

Willkommen beim Flugservice Bautzen GmbH

Wir sind eine nach europäischen Richtlinien zugelassene Flugschule und lizenziertes Luftfahrtunternehmen. Bei uns können sie nicht nur Rundflüge über die Oberlausitz oder Sachsen buchen, sondern in unserer Flugschule selber das Fliegen erlernen. Erfahrene Fluglehrer stehen Ihnen dabei zur Seite.

Wir bieten Ihnen außerdem spezielle Flüge zur Vermessung oder Fotoflüge für Luftbildaufnahmen an. In Zusammenarbeit mit dem Fallschirmsportclub Dresden und dem Cottbuser Fallschirmsportclub setzen wir am Flugplatz Bautzen und Neuhausen Fallschirmspringer ab.
Schauen Sie sich in Ruhe bei uns um und wenn Sie Fragen haben oder weitere Informationen benötigen, scheuen Sie sich nicht Kontakt mit uns aufzunehmen.

Gutscheine für Rundflüge und Tandemsprünge können Sie ganz leicht auch online in unserem Shop erwerben.

Terminkalender

Letzter Monat August 2022 Nächster Monat
Mo Di Mi Do Fr Sa So
week 31 1 2 3 4 5 6 7
week 32 8 9 10 11 12 13 14
week 33 15 16 17 18 19 20 21
week 34 22 23 24 25 26 27 28
week 35 29 30 31

Flugwetterinfo

[Quelle: ADDS]
METAR
EDDC 120620Z AUTO VRB02KT CAVOK 20/08 Q1022 NOSIG =
EDDC 120500Z 1206/1306 14005KT CAVOK BECMG 1206/1208 08012KT BECMG 1218/1220 12004KT
TAF
EDDC 120500Z 1206/1306 14005KT CAVOK BECMG 1206/1208 08012KT BECMG 1218/1220 12004KT =
SR / SS: 03:43 / 18:30 UTC (EDAB Flugplatz Bautzen 2022-08-12)

Öffnungszeiten

des Flugplatzes Bautzen erfahren Sie hier:

flugplatz bautzen logo
Flugservice Bautzen GmbH, Kornmarkt 34, 02625 Bautzen  Telefon: +49 (3591) 211105, Telefax: +49 (3591) 274512, E-Mail:  flugservice(at)fsbautzen.de
Wir benutzen Cookies
Wir nutzen nur Cookies auf unserer Website, die essenziell für den Betrieb der Seite sind. Sie können selbst entscheiden, ob Sie die Cookies zulassen möchten. Bitte beachten Sie, dass bei einer Ablehnung womöglich nicht mehr alle Funktionalitäten der Seite zur Verfügung stehen.